Other Public Products
Issued by NWS Grand Forks, ND

Home | Current Version | Previous Version | Text Only | Print | Product List | Glossary Off
Versions: 1 2 3 4 5 6 7 8 9 10 11 12 13 14 15 16 17 18 19 20 21 22 23 24 25 26 27 28 29 30 31 32 33 34 35 36 37 38 39 40 41 42 43 44 45 46 47 48 49 50

000
FPUS83 KFGF 250910
OPUFGF
PRAIRIE TO PINES WEATHER ROUNDUP
NATIONAL WEATHER SERVICE EASTERN NORTH DAKOTA/GRAND FORKS ND
400 AM CDT SUN SEP 25 2016

 **SATELLITE DATA USED TO AUGMENT SKY COVER AT AUTOMATED STATIONS**
 *****  WEATHER ACROSS EASTERN NORTH DAKOTA  *****

CITY           SKY/WX    TMP DP  RH WIND       PRES   REMARKS
GRAND FORKS    CLEAR     61  57  87 S9        29.72F
GRAND FORKS AF CLEAR     57  54  87 S10       29.72S
GRAND CITY NWS NOT AVBL
BUXTON           N/A     64  62  95 S7          N/A
DEVILS LAKE    CLOUDY    57  57 100 W15       29.71F FOG
FARGO          CLEAR     60  53  77 S12       29.79R
WAHPETON ARPT  SUNNY     55  48  76 SW8       29.83S
$$

 *****  WEATHER ACROSS CENTRAL AND WESTERN NORTH DAKOTA  *****

CITY           SKY/WX    TMP DP  RH WIND       PRES   REMARKS
JAMESTOWN      PTCLDY    49  46  90 S10       29.75F
BISMARCK       LGT RAIN  54  52  93 NW28G37   29.81R
MINOT          CLOUDY    52  50  93 NW26G35   29.81S
MINOT AFB      LGT RAIN  52  50  93 NW25G31   29.81R
GARRISON         N/A     50  50 100 NW22G39   29.83R
WILLISTON      CLOUDY    51  45  79 NW17      30.01R
DICKINSON      LGT RAIN  48  45  89 NW26G38   29.98R
HETTINGER      CLOUDY    49  45  86 NW31G43   30.02R
$$

 *****  OTHER OBSERVATIONS NORTHEAST NORTH DAKOTA  *****

CITY           SKY/WX    TMP DP  RH WIND       PRES   REMARKS
WALHALLA       FAIR      59  59 100 SE5       29.67F
LANGDON        FAIR      55  55 100 S13       29.70S
CAVALIER       FAIR      63  63 100 S8        29.68F FOG
GRAFTON        FAIR      63  63 100 S10       29.72S
CANDO          FOG       57  57 100 W7        29.73R VSB 1
FORT TOTTEN    NOT AVBL
ROLLA          CLOUDY    52  52 100 NW20G32   29.71S
RUGBY          FAIR      54  54 100 NW23G31   29.73R
 ***** THE ABOVE OBSERVATIONS ARE NON NWS ARE NOT QUALITY
        CONTROLLED AND MAY MIS-REPORT RAIN FOR SNOW...
$$

 *****  OTHER OBSERVATIONS SOUTHEAST NORTH DAKOTA *****

CITY           SKY/WX    TMP DP  RH WIND       PRES   REMARKS
COOPERSTOWN    FAIR      52  50  93 S10       29.75R
VALLEY CITY    FAIR      50  50 100 SW13      29.78F
OAKES          NOT AVBL
GWINNER        FAIR      52  46  82 S9        29.81F
SHEYENNE NWR     N/A     53  48  82 SW7       29.95
BUFFALO          N/A     54  47  77 SW10        N/A
WYNDMERE       NOT AVBL
 ***** THE ABOVE OBSERVATIONS ARE NON NWS ARE NOT QUALITY
       CONTROLLED AND MAY MIS-REPORT RAIN FOR SNOW...
$$

  *****  WEATHER ACROSS NORTHERN MINNESOTA  *****

CITY           SKY/WX    TMP DP  RH WIND       PRES   REMARKS
FLAG ISLAND    CLOUDY    63  61  94 S16       29.75F
WARROAD        CLOUDY    64  61  88 S12       29.76F
ROSEAU         CLOUDY    66  61  82 S9        29.75F
HALLOCK        CLEAR     64  63  94 S14       29.70F
THF RVR FALLS  PTCLDY    64  63  96 S10       29.77S
HALSTAD          N/A     60  55  84 SW8         N/A
FOSSTON        CLOUDY    64  63  94 S8        29.78F
BAUDETTE       CLOUDY    63  62  97 SE13G21   29.80F
WASKISH        CLOUDY    64  63  94 S6        29.81F
CROOKSTON      CLEAR     64  63  94 S13       29.75F
$$
  *****  WEATHER ACROSS CENTRAL AND WEST MINNESOTA  *****

CITY           SKY/WX    TMP DP  RH WIND       PRES   REMARKS
BEMIDJI        DRIZZLE   64  63  97 S7        29.80F
PARK RAPIDS    CLOUDY    66  63  90 S12       29.82F FOG
WADENA         CLOUDY    64  64 100 S8        29.83S FOG
DETROIT LAKES  PTCLDY    64  61  88 SW10      29.82F
MOORHEAD       CLEAR     57  54  88 S9        29.81R
FERGUS FALLS   PTCLDY    61  61 100 SW8       29.85R
ELBOW LAKE     FAIR      59  55  84 SW9       29.85R
MORRIS MN      CLOUDY    57  52  82 W6        29.86R
STAPLES        DRIZZLE   64  64 100 S7        29.83S
WHEATON        NOT AVBL
$$
  *****  WEATHER ELSEWHERE ACROSS MINNESOTA  *****

CITY           SKY/WX    TMP DP  RH WIND       PRES   REMARKS
DULUTH         CLOUDY    60  60 100 SE12      29.94F FOG
INTRNTL FALLS  RAIN      62  61  96 SE9       29.84F
ELY            CLOUDY    61  57  88 S6        29.94F
CLOQUET        CLOUDY    61  59  94 E7        29.93F FOG
BRAINERD       LGT RAIN  65  64  97 SE10      29.84F FOG
HIBBING        LGT RAIN  60  59  96 SE10      29.90F FOG
ALEXANDRIA     CLOUDY    67  67 100 SW12      29.85S
SAINT CLOUD    LGT RAIN  67  67 100 S10       29.86F
MINNEAPOLIS    CLOUDY    68  65  90 SE12      29.91F FOG
$$

  *****  WEATHER ACROSS SOUTH DAKOTA  *****

CITY           SKY/WX    TMP DP  RH WIND       PRES   REMARKS
SIOUX FALLS    PTCLDY    55  47  74 W8        29.97R
BROOKINGS      CLEAR     52  46  80 SW8       29.94S
WATERTOWN      CLEAR     52  45  77 SW12      29.89F
HURON          CLEAR     54  46  74 SW10      29.92S
SISSETON         N/A     57  46  66 W15G22    29.81F
ABERDEEN       PTCLDY    53  46  77 S15G22    29.81F
MITCHELL       CLEAR     55  45  68 W12       29.97S
PIERRE         CLOUDY    57  45  64 NW25G43   29.94R
MOBRIDGE       CLOUDY    56  48  74 NW33G45   29.83R
RAPID CITY     CLOUDY    51  44  77 NW15G25   30.17R
$$

  *****  SOME WEATHER IN NEARBY STATES *****

CITY           SKY/WX    TMP DP  RH WIND       PRES   REMARKS
GLASGOW MT     CLEAR     43  36  76 W14       30.19R
GREAT FALLS MT CLEAR     40  35  83 S12       30.32F
CHEYENNE WY    CLEAR     44  32  62 NW17G28   30.35S
SCOTTSBLUFF NE CLEAR     42  38  85 NW7       30.30R
OMAHA NE       LGT RAIN  69  64  84 W5        29.98R
DES MOINES IA  LGT RAIN  70  69  97 S7        29.96F
DAVENPORT IA   CLOUDY    67  65  93 SE6       30.03S FOG
CHICAGO IL     PTCLDY    66  61  84 SE7       30.11R
EAU CLAIRE WI  CLOUDY    65  62  90 SE13      29.98F
LA CROSSE WI   CLOUDY    68  63  84 SE6       29.99F
$$

  *****  SOME NATIONAL WEATHER *****

CITY           SKY/WX    TMP DP  RH WIND       PRES   REMARKS
LA GUARDIA NY  CLEAR     60  43  53 N6        30.16R
RALEIGH NC     CLOUDY    72  69  90 E10       30.10S
ATLANTA GA     PTCLDY    73  66  78 CALM      30.07R
NEW ORLEANS LA PTCLDY    77  74  90 SW3       30.01S
OKLAHOMA CITY  LGT RAIN  68  67  96 SE8       30.01F
ALBUQUERQUE NM PTCLDY    52  35  52 CALM      30.23R
SALT LAKE CITY CLEAR     48  42  80 SE6       30.41R
LOS ANGELES CA CLEAR     66  50  56 E6        29.98R
BOISE ID       CLEAR     50  36  58 SE5       30.40R
SEATTLE WA     CLOUDY    60  48  64 CALM      30.40S
$$

*** WEATHER ACROSS MANITOBA...SASKATCHEWAN AND ONTARIO ***
                ***ONTARIO***

CITY           SKY/WX    TMP DP  RH WIND       PRES   REMARKS
GERALDTON      CLOUDY    54  50  87 S5        30.11F
THUNDER BAY    MOCLDY    57  54  88 CALM      30.03F
SIOUX LOOKOUT  LGT RAIN  57  54  88 SE6       29.90F
TORONTO        CLEAR     50  39  66 N3        30.25S
BIG TROUT LK   MOCLDY    52  45  76 SE12G21   29.95F
PICKLE LAKE    NOT AVBL
DRYDEN         CLOUDY    59  57  94 SE12      29.86F
KENORA         CLOUDY    61  61 100 S12G18    29.79F FOG
$$
                *** MANITOBA***

CITY           SKY/WX    TMP DP  RH WIND       PRES   REMARKS
BRANDON        LGT RAIN  54  52  94 NW12G18   29.73R
DAUPHIN        CLOUDY    52  50  93 NW7       29.75S FOG
ISLAND LAKE    CLOUDY    57  54  88 SE13G18   29.73F
PILOT MOUND      N/A     55  55 100 NW9         N/A
THE PAS        LGT RAIN  52  48  87 NW14G22   29.79S
THOMPSON       LGT RAIN  50  50 100 N7        29.70F
WINNIPEG       CLOUDY    66  64  94 S15       29.66F
LYNN LAKE      CLOUDY    48  48 100 NW3       29.76F
CHURCHILL      CLOUDY    50  45  81 SE13      29.88F
GILLAM         CLOUDY    52  45  76 SE6       29.78F
$$
                ***SASKATCHEWAN***

CITY           SKY/WX    TMP DP  RH WIND       PRES   REMARKS
ESTEVAN        NOT AVBL
KINDERSLEY     CLEAR     39  32  75 W9        30.18S
LLOYDMINSTER   CLEAR     41  32  70 W14       30.15R
PRINCE ALBERT  PTCLDY    43  39  87 NW12      29.98F
REGINA         MOCLDY    45  41  87 NW16G22   30.02R
YORKTON        MOCLDY    50  48  93 NW14G21   29.86R   C1F1C2F2C3F3C4F4C5F5C6F6C7F7C8F8C9F9CaFaCbFbCcFcCdFdCe!


USA.gov is the U.S. government's official web portal to all federal, state and local government web resources and services.